User: anonymous   Login
Location: Unspecified
(0.0000°N, 0.0000°E)
Time: 23:06:05
(UTC+00:00)
Language:

STARLINK-35257 - Orbit

View from above orbital plane
View from above orbital plane
View from above satellite
View from above satellite

Ground track
Ground track

The orbit is defined by the following mean orbital elements,

1 66331U          26145.36082681 +.00000000 +00000-0 +48967-3 0 00001
2 66331  42.9999 139.2208 0001419 259.1552 100.9140 15.27585828    08
Epoch (UTC): 25 May 2026 08:39:35
Eccentricity: 0.0001419
inclination: 42.9999°
perigee height: 482 km
apogee height: 484 km
right ascension of ascending node: 139.2208°
argument of perigee: 259.1552°
revolutions per day: 15.27585828
mean anomaly at epoch: 100.9140°

The dashed part of the orbit path shows where the satellite is in the earth's shadow,  

DLR